Showing default

ICEYE-X74, 68500

Orbit data source: Space-Track

ICEYE-X74, 68500 is a payload satellite owned by ICEYE (US) in SSO that was launched on Mon, 30 Mar 2026 UTC via an FALCON 9 launch vehicle from the Air Force Western Test Range (AFWTR). Payload-class satellites include a variety of spacecraft equipped with specific instruments for various scientific and technological missions. These include communications satellites like Starlink; space stations such as the ISS; scientific satellites like the Hubble; Earth observation satellites from companies like Planet Labs, Umbra, and HawkEye 360; GPS; miniature CubeSats for education and research; and military/defense satellites.

Loading next visibility...
Identifier
68500, 2026-067CN
Orbit
SSO
Country
Flag of USUS
Related business
Manufacturer
ICEYE
Mission
Operational spacecraft
Bus & Motor
ICEYE, Unknown motor
Mass
120 kg wet, 120 kg dry
Launch date (UTC)
2026-03-30 (2 months ago)
Launch vehicle
FALCON 9
Launch site
Air Force Western Test Range (AFWTR)
Object type
Payload
Rocket body
Debris
Shape & HBR
Unknown shape, 14.5 m
Radar Cross Section
Medium (>0.1 m² and <1 m²)

Expand to show TLE details & history
Last TLE update: 15 hours ago

TLE from 15 hours ago
0 ICEYE-X74
1 68500U 26067CN  26150.88770204  .00003624  00000-0  36684-3 0  9995
2 68500  97.7607 109.3990 0003845  82.6107 277.5548 14.91575161  9144
Epoch: 2026-05-30T21:18Z
TLE epoch observation values (Epoch: 2026-05-30T21:18:17.456Z)
Latitude
-0.00006°
Longitude
-98.571°
Altitude
595.713 km
Speed
7.562 km/s
True Right ascension
07h 17m 35s
True Declination
0° 00' 00"
Sunlit
Object was in daylight at epoch
Visualization orbit readout
Latitude
Unknown
Longitude
Unknown
Altitude
Unknown
Speed
Unknown
Apparent Right ascension
Unknown
Apparent Declination
Unknown
Sunlit
N/A
Visualization observer readout
Local Sidereal Time
21:34:42
Azimuth
Unknown
Elevation
Unknown
Doppler factor
Unknown
Orbital elements
Apogee altitude
592.722 km
Perigee altitude
587.363 km
Semi-major axis
6,968.18 km
Eccentricity
0.00038
Inclination
97.7607°
RAAN
109.399°
Arg. of periapsis
82.6107°
True anomaly
277.51112°
Mean anomaly
277.5548°
Eccentric anomaly
277.53296°
Mean motion
3.73133 °/min
Orbital period
96.48 mins
BSTAR
0.00036684
Loading maneuver chart data...
Computing Atmospheric mass density...
Loading historical data...
Loading historical data...
Loading historical data...
Loading historical data...
Loading historical data...
Loading historical data...
Loading historical data...

Documentation

Showing up to 5 results
|